EW8299 Weather Reports


time (UTC)temp
C
wind
direction
speed
KPH
gust
KPH
rain 1hr
cm
rain 24hr
cm
rain mn
cm
humidity
%
barometer
mb
20260506231508 8 56 0.0 0.0 0.00 0.00 0.00 89 1004.9
20260506230007 8 56 0.0 0.0 0.00 0.00 0.00 89 1005.0
20260506224505 8 56 0.0 0.0 0.00 0.00 0.00 87 1004.9
20260506223002 8 56 0.0 0.0 0.00 0.00 0.00 87 1005.0
20260506221605 9 56 0.0 0.0 0.00 0.00 0.00 86 1004.8
20260506220058 9 70 0.0 0.0 0.00 0.00 0.00 86 1004.6
20260506214600 10 44 0.0 0.0 0.00 0.00 0.00 86 1004.6
20260506213059 10 72 0.0 0.0 0.00 0.00 0.00 85 1004.5
20260506211556 10 70 0.0 1.6 0.00 0.00 0.00 85 1004.4
20260506210051 10 69 0.0 0.0 0.00 0.00 0.00 86 1004.3
20260506204550 10 62 0.0 0.0 0.00 0.00 0.00 85 1004.3
20260506203052 10 88 0.0 0.0 0.00 0.00 0.00 85 1004.3
20260506201552 11 49 0.0 0.0 0.00 0.00 0.00 85 1004.4
20260506200048 11 29 0.0 0.0 0.00 0.00 0.00 85 1004.4
20260506194549 11 360 0.0 0.0 0.00 0.00 0.00 84 1004.5
20260506193053 11 337 0.0 1.6 0.00 0.00 0.00 84 1004.4
20260506191548 12 346 0.0 12.9 0.00 0.00 0.00 82 1004.6
20260506190050 12 354 0.0 0.0 0.00 0.00 0.00 81 1004.2
20260506184546 12 2 0.0 0.0 0.00 0.00 0.00 80 1003.8
20260506183046 12 333 0.0 0.0 0.00 0.00 0.00 80 1003.5
20260506181600 13 71 0.0 12.9 0.00 0.00 0.00 79 1002.9
20260506180045 13 83 0.0 8.0 0.00 0.00 0.00 79 1003.0
20260506174544 13 46 0.0 4.8 0.00 0.00 0.00 78 1003.1
20260506173111 13 91 0.0 14.5 0.00 0.00 0.00 77 1002.9
20260506171544 13 47 0.0 4.8 0.00 0.00 0.00 74 1003.0
20260506170100 13 56 0.0 19.3 0.00 0.00 0.00 74 1003.1
20260506164541 13 61 0.0 16.1 0.00 0.00 0.00 74 1003.0
20260506163050 14 356 0.0 17.7 0.00 0.00 0.00 73 1003.2
20260506161540 14 337 0.0 16.1 0.00 0.00 0.00 72 1003.3
20260506160042 14 33 0.0 17.7 0.00 0.00 0.00 74 1003.4
20260506154547 14 71 0.0 12.9 0.00 0.00 0.00 75 1003.5
20260506153034 14 70 0.0 8.0 0.00 0.00 0.00 76 1003.8
20260506151534 14 62 0.0 16.1 0.00 0.00 0.00 78 1003.9
20260506150031 15 66 0.0 4.8 0.00 0.00 0.00 79 1004.1
20260506144537 15 47 0.0 9.7 0.00 0.00 0.00 74 1004.8
20260506143031 16 74 0.0 9.7 0.00 0.00 0.00 70 1004.7
20260506141530 17 25 1.6 14.5 0.00 0.00 0.00 64 1004.5
20260506140033 18 56 1.6 12.9 0.00 0.00 0.00 56 1004.3
20260506134527 18 35 3.2 9.7 0.00 0.00 0.00 55 1004.3
20260506133035 19 54 0.0 9.7 0.00 0.00 0.00 54 1004.4
20260506131524 19 1 1.6 14.5 0.00 0.00 0.00 53 1004.6
20260506130022 20 35 3.2 14.5 0.00 0.00 0.00 53 1004.8
20260506124518 19 82 0.0 11.3 0.00 0.00 0.00 54 1005.0
20260506123119 18 339 0.0 9.7 0.00 0.00 0.00 53 1005.2
20260506121516 19 351 3.2 17.7 0.00 0.00 0.00 52 1005.3
20260506120013 18 33 0.0 11.3 0.00 0.00 0.00 54 1005.5
20260506114511 18 68 0.0 4.8 0.00 0.00 0.00 54 1005.5
20260506113008 17 79 0.0 16.1 0.00 0.00 0.00 54 1005.9
20260506111504 17 75 1.6 6.4 0.00 0.00 0.00 56 1006.2
20260506110003 17 59 1.6 20.9 0.00 0.00 0.00 57 1006.3
20260506104504 17 82 1.6 19.3 0.00 0.00 0.00 56 1006.4
20260506103110 17 83 4.8 20.9 0.00 0.00 0.00 56 1006.5
20260506101559 17 73 1.6 20.9 0.00 0.00 0.00 56 1006.7
20260506100056 17 30 0.0 12.9 0.00 0.00 0.00 55 1006.8
20260506094552 16 20 0.0 9.7 0.00 0.00 0.00 57 1006.7
20260506093049 16 36 0.0 6.4 0.00 0.00 0.00 59 1006.7
20260506091549 16 37 0.0 22.5 0.00 0.00 0.00 58 1006.5
20260506090048 16 341 4.8 14.5 0.00 0.00 0.00 58 1006.7
20260506084544 15 47 1.6 9.7 0.00 0.00 0.00 58 1006.9
20260506083044 15 6 3.2 14.5 0.00 0.00 0.00 60 1007.0
20260506081539 15 69 0.0 12.9 0.00 0.00 0.00 61 1007.2
20260506073034 14 15 3.2 14.5 0.00 0.00 0.00 61 1007.5
20260506071528 13 33 1.6 9.7 0.00 0.00 0.00 62 1007.5
20260506061517 11 33 0.0 8.0 0.00 0.00 0.00 74 1007.8
20260506044500 8 50 0.0 3.2 0.00 0.00 0.00 86 1007.9
20260506043058 8 11 0.0 9.7 0.00 0.00 0.00 87 1008.0
20260506041555 8 345 0.0 3.2 0.00 0.00 0.00 88 1007.7
20260506040051 8 15 0.0 1.6 0.00 0.00 0.00 88 1007.6
20260506034551 8 349 0.0 0.0 0.00 0.00 0.00 88 1007.6
20260506033046 8 20 0.0 0.0 0.00 0.00 0.00 88 1007.7
20260506031549 8 348 0.0 0.0 0.00 0.00 0.00 88 1007.6
20260506030043 8 30 0.0 0.0 0.00 0.00 0.00 88 1007.5
20260506024545 8 20 0.0 0.0 0.00 0.00 0.00 87 1007.4
20260506023042 8 2 0.0 0.0 0.00 0.00 0.00 87 1007.5
20260506021552 8 41 0.0 0.0 0.00 0.00 0.00 87 1007.2
20260506020039 8 15 0.0 0.0 0.00 0.00 0.00 87 1007.1
20260506014539 8 15 0.0 0.0 0.00 0.00 0.00 87 1007.1
20260506013043 8 2 0.0 3.2 0.00 0.00 0.00 87 1007.0
20260506011544 8 2 0.0 0.0 0.00 0.00 0.00 87 1007.0
20260506010045 8 349 0.0 0.0 0.00 0.00 0.00 87 1007.3
20260506004534 8 360 0.0 4.8 0.00 0.00 0.00 87 1007.3
20260506003032 9 347 0.0 8.0 0.00 0.00 0.00 85 1007.0
20260506001529 10 4 0.0 0.0 0.00 0.00 0.00 84 1006.7
20260506000028 10 357 0.0 3.2 0.00 0.00 0.00 82 1006.9
20260505234533 10 360 0.0 0.0 0.00 0.00 0.00 83 1006.8
20260505233028 10 343 0.0 0.0 0.00 0.00 0.00 84 1006.9